Location: Weyhill
(51.2167°N, 1.5500°W)
Time: 14:41:23
(UTC+00:00)

Daily predictions for brighter satellites

Satellite Brightness Start Highest point End
(mag) Time Altitude Azimuth Time Altitude Azimuth Time Altitude Azimuth
ERS-1 Rocket 3.4 20:57:54 10° SE 21:02:45 52° ENE 21:07:39 10° N
GEOS 3 Rocket 4.1 20:58:38 10° NE 21:03:46 43° SE 21:08:52 10° SSW
Cosmos 2278 Rocket 3.3 21:01:36 10° NNW 21:06:48 35° NE 21:11:58 10° ESE
USA 215 3.9 21:01:37 10° ENE 21:07:24 32° SE 21:13:10 10° SSW
ATLAS 5 CENTAUR R/B 1.7 21:07:07 10° SSW 21:11:09 51° SE 21:15:43 10° NE
Cosmos 1844 Rocket 2.9 21:06:20 10° NNW 21:11:54 69° WSW 21:17:24 10° SSE
Gblst 52 Del rocket 4.3 21:07:01 10° WNW 21:12:37 81° SSW 21:18:49 10° ESE
USA 245 3.4 21:09:32 10° S 21:12:54 75° WSW 21:17:13 10° NNW
Cosmos 1400 Rocket 2.8 21:08:52 10° NNW 21:12:54 89° W 21:16:50 10° S
Cosmos 1758 Rocket 3.6 21:11:16 10° S 21:15:46 83° E 21:20:17 10° NNE
Meteor 2-10 Rocket 4.3 21:10:59 10° NNW 21:15:53 50° W 21:20:56 10° S
Lacrosse 5 rocket 2.8 21:14:47 10° W 21:18:50 40° NNW 21:22:41 10° ENE
SPOT 5 3.1 21:14:29 10° SSE 21:19:26 61° ENE 21:24:09 10° N
BREEZE-M DEB (TANK) 4.2 21:15:37 10° W 21:19:33 78° S 21:34:17 10° E
Spot 2 Rocket 3.9 21:18:15 10° S 21:23:18 65° WSW 21:28:25 10° NNW
USA 81 4.4 21:20:46 10° SSE 21:25:50 50° E 21:30:56 10° NNE
BREEZE M DEB (TANK) 3.1 21:23:36 10° W 21:26:04 25° SSW 21:27:39 12° SSE
Cosmos 2181 Rocket 4.1 21:21:19 10° N 21:27:41 70° ENE 21:33:55 10° SSE
Landsat 7 4.2 21:23:06 10° S 21:27:49 62° WSW 21:32:33 10° NNW
SPOT 1/Viking Rocket 3.9 21:32:49 10° S 21:37:56 63° WSW 21:43:05 10° NNW
Cosmos 1953 Rocket 3.5 21:34:34 10° S 21:38:53 79° E 21:43:13 10° NNE
NOSS 7 (D) 4.4 21:37:27 10° SW 21:40:11 58° NW 21:42:49 10° NE
CZ-4C R/B 4.5 21:36:20 10° NW 21:41:47 30° N 21:48:07 10° ENE
USA 267 3.4 21:35:17 10° ESE 21:41:51 84° NNE 21:48:28 10° WNW
SAR-Lupe-2 3.6 21:39:26 10° NNE 21:43:03 88° WNW 21:46:39 10° SSW
Cosmos 1328 4.3 21:39:44 10° SSW 21:43:40 62° WNW 21:47:38 10° N
Cosmos 2084 3.5 21:39:39 10° NW 21:44:09 81° SW 21:48:05 13° SE
Cosmos 1842 Rocket 3.8 21:41:02 10° N 21:45:19 54° ENE 21:49:02 13° SSE
Cosmos 2322 Rocket 3.6 21:40:35 10° WSW 21:45:54 42° NW 21:51:16 10° NNE
Cosmos 1455 4.3 21:43:00 10° NW 21:46:09 24° W 21:49:18 10° SW
Cosmos 1825 Rocket 4.4 21:50:19 10° SSW 21:54:39 52° WNW 21:59:03 10° N
ATLAS CENTAUR R/B 1.2 21:51:59 10° NW 21:55:39 62° SW 21:58:26 16° SSE
Cosmos 1825 4.4 21:58:11 10° ESE 21:59:57 13° E 22:01:43 10° NE
COSMOS 2428 2.7 22:00:01 10° SSW 22:05:38 66° ESE 22:11:17 10° NE
Cosmos 1869 3.3 22:02:20 10° N 22:06:20 71° ENE 22:09:22 17° SSE
Cosmos 2322 3.9 22:03:48 10° SW 22:09:32 78° WNW 22:15:18 10° NNE
NOSS 3-4 (A) 4.0 22:05:42 10° NW 22:12:32 75° NE 22:19:47 11° SE
NOSS 3-4 (C) 4.0 22:05:49 10° NW 22:12:38 74° NE 22:19:55 11° SE
NOSS 0 Rocket 4.3 22:07:31 10° S 22:13:10 43° ESE 22:18:58 10° NE
Terra 2.2 22:10:34 13° S 22:14:47 62° WSW 22:19:32 10° NNW
Cosmos 2237 Rocket 2.9 22:14:58 15° SSE 22:19:09 37° ESE 22:24:21 10° NE
BREEZE-M DEB 4.4 22:15:39 10° W 22:19:31 55° SSW 22:33:29 10° ESE
Atlas Centaur 2 4.4 22:19:43 10° SSW 22:21:15 11° S 22:21:21 11° S
Cosmos 2219 Rocket 2.2 22:15:50 10° SSW 22:21:26 89° WNW 22:27:06 10° NNE
Cosmos 2344 4.3 22:16:02 13° S 22:21:36 32° ESE 22:28:23 10° NE
Cosmos 1538 Rocket 4.1 22:17:22 10° SSW 22:22:44 85° WNW 22:28:06 10° NNE
Cosmos 2360 Rocket 3.6 22:18:27 10° WSW 22:23:46 40° NW 22:29:08 10° NNE
NOSS 3-3 (A) 3.9 22:18:00 10° SSW 22:23:54 75° SE 22:30:40 10° NE
NOSS 3-3 (C) 3.9 22:18:06 10° SSW 22:24:02 75° SE 22:30:47 10° NE
Cosmos 1315 Rocket 3.9 22:22:37 10° NNW 22:26:28 40° W 22:29:55 12° SSW
Thor Agena Rocket 4.1 22:25:15 10° NNE 22:30:05 40° E 22:33:18 19° SSE
Meteor 2-2 Rocket 4.4 22:25:30 10° NNW 22:31:21 75° W 22:35:55 16° S
Cosmos 2333 Rocket 2.5 22:25:53 10° SW 22:31:35 74° WNW 22:37:21 10° NNE
Cosmos 2184 Rocket 4.0 22:27:10 12° S 22:33:03 87° E 22:39:25 10° N
Cosmos 2221 3.0 22:31:47 10° NNW 22:36:06 58° W 22:39:20 17° S
BREEZE-M DEB (TANK) 1.7 22:35:01 10° W 22:39:47 61° SSW 22:41:22 21° ESE
Iridium 2 4.0 22:36:31 10° N 22:40:18 56° E 22:42:26 24° SSE
Cosmos 1371 Rocket 4.1 22:35:11 10° NNW 22:40:28 71° ENE 22:44:15 19° SE
ATLAS 2AS CENTAUR R/B 2.9 22:32:49 10° NW 22:40:33 90° SW 22:46:25 16° SE
EO 1 Del DPAF 3.8 22:39:39 10° NNE 22:43:14 39° E 22:45:00 24° SSE
Cosmos 1892 2.6 22:41:59 20° S 22:44:29 85° E 22:48:18 10° NNE
Aureole 2 Rocket 3.2 22:45:01 10° N 22:47:36 32° ENE 22:48:59 20° ESE
Cosmos 1606 3.8 22:46:35 10° N 22:50:10 34° ENE 22:52:19 19° SE
USA 215 3.2 22:44:24 10° ENE 22:51:01 84° SSE 22:57:35 10° WSW
Cosmos 2278 Rocket 2.6 22:45:37 10° NW 22:51:09 54° WSW 22:54:59 20° S
Cosmos 2112 Rocket 4.2 22:48:24 19° S 22:52:09 56° ESE 22:57:24 10° NNE
Cosmos 2297 4.2 22:46:55 10° NNW 22:52:37 58° NE 22:57:11 16° SE
ATLAS 5 CENTAUR R/B 3.4 22:51:54 10° W 22:55:58 36° NNW 23:00:37 10° NE
Cosmos 158 Rocket 3.9 22:52:56 19° S 22:56:19 63° ESE 23:01:11 10° NNE
Lacrosse 5 rocket 2.7 22:54:45 10° WNW 22:58:39 39° N 23:02:20 10° E
Cosmos 1943 Rocket 3.4 22:53:49 10° NNW 22:59:06 37° NE 23:04:20 10° ESE
Spot 4 3.8 22:59:07 23° S 23:02:09 82° WSW 23:06:58 10° NNW
SL-16 R/B 3.1 23:00:47 21° SSE 23:03:33 32° ESE 23:08:31 10° NE
Cosmos 2058 3.2 23:01:11 17° SSW 23:04:15 63° WNW 23:08:23 10° N
Cosmos 2056 Rocket 3.6 22:58:59 10° NNW 23:04:25 89° WSW 23:07:58 23° SSE
Cosmos 1408 2.4 23:03:24 26° S 23:05:18 89° W 23:08:53 10° N
Nadezhda 3 Rocket 4.3 23:02:57 10° NNW 23:09:15 65° W 23:13:54 19° S
Cosmos 2154 Rocket 4.1 23:07:49 16° SSW 23:12:57 75° W 23:19:13 10° N
Cosmos 2341 Rocket 4.0 23:11:46 21° S 23:16:02 71° E 23:22:14 10° NNE
Cosmos 1076 Rocket 4.0 23:12:54 17° SSW 23:16:05 55° WNW 23:20:17 10° N
Cosmos 1680 Rocket 3.6 23:15:57 14° SSW 23:20:30 80° WNW 23:25:53 10° NNE
Meteor 2-3 Rocket 4.5 23:21:02 21° SSE 23:24:14 40° E 23:29:30 10° NNE
USA 267 3.8 23:21:24 22° SSE 23:25:16 42° SW 23:31:27 10° WNW
Cosmos 2151 2.9 23:23:52 26° S 23:26:14 88° E 23:30:32 10° N
Helios 1A 3.6 23:24:53 22° SE 23:27:17 47° ENE 23:31:19 10° N
Cosmos 1452 Rocket 3.8 23:26:12 10° NNW 23:31:28 62° ENE 23:35:06 20° SE
CZ-4C R/B 3.6 23:25:13 10° NW 23:31:48 52° NE 23:39:32 10° ESE
BREEZE-M DEB (TANK) 4.3 23:30:17 10° W 23:32:20 13° WSW 23:32:45 13° SW
COSMOS 2455 3.1 23:27:05 10° NW 23:33:08 67° NE 23:38:24 14° SE
Cosmos 1825 2.4 23:32:56 25° SSW 23:34:57 63° WNW 23:38:44 10° N
SL-8 Rocket 4.0 23:30:59 23° S 23:34:59 73° E 23:41:08 10° NNE
IRIDIUM 114 4.4 23:32:35 25° SSE 23:35:36 69° E 23:40:50 10° N
Cosmos 1340 3.3 23:34:23 29° SE 23:35:44 42° E 23:39:19 10° NNE
Cosmos 1933 3.3 23:32:18 10° N 23:36:21 79° ENE 23:38:13 31° SSE
ALOS 2 2.7 23:35:27 28° S 23:37:42 71° WSW 23:42:07 10° NNW
Cosmos 1151 Rocket 3.0 23:33:31 10° N 23:37:54 88° E 23:40:03 29° S
Cosmos 1408 Rocket 4.0 23:35:56 27° SSE 23:37:57 48° E 23:42:12 10° NNE
APEX 2.5 23:40:55 10° NNW 23:43:39 67° ENE 23:44:22 42° ESE
Cosmos 2369 Rocket 2.9 23:38:20 10° NNW 23:43:48 51° NE 23:48:49 12° SE
Cosmos 1727 Rocket 4.2 23:37:38 10° N 23:43:52 66° ENE 23:48:04 22° SSE
IRIDIUM 103 4.3 23:41:42 26° S 23:44:45 81° E 23:50:00 10° N
Cosmos 1980 4.2 23:39:11 10° SW 23:44:45 58° NW 23:50:21 10° NNE
Cosmos 44 3.2 23:43:38 29° S 23:45:36 54° SE 23:49:58 10° NE
GP-B 3.1 23:42:04 10° N 23:46:31 80° W 23:48:50 28° S
Cosmos 371 Rocket 3.3 23:42:53 10° NNW 23:47:47 80° WSW 23:50:25 27° SSE
SL-4 R/B 0.7 23:48:59 63° NNW 23:48:59 63° NNW 23:50:48 10° NNW
COSMOS 2428 4.5 23:45:24 10° WSW 23:50:22 30° NW 23:55:23 10° NNE
Helios 1B rocket 4.1 23:50:25 10° NE 23:53:42 22° E 23:55:23 18° SE
CREW DRAGON DEMO-1 DEB 2.9 23:54:49 49° S 23:55:07 52° SSE 23:58:08 10° E
